Weather History for Whiting Fld NAS, FL

Change the Weather History Date:

Friday, March 30, 2012

  Actual Average Record
Temperature  
Mean Temperature 74 °F -  
Max Temperature 82 °F 72 °F 82 °F (1998)
Min Temperature 66 °F 51 °F 43 °F (2014)
Cooling Degree Days 9    
Growing Degree Days 24 (Base 50)    
Moisture  
Dew Point 68 °F    
Average Humidity 90    
Maximum Humidity 100    
Minimum Humidity 60    
Precipitation  
Precipitation 0.01 in - - ()
Sea Level Pressure  
Sea Level Pressure 29.92 in    
Wind  
Wind Speed 5 mph (SSE)    
Max Wind Speed 20 mph    
Max Gust Speed 25 mph    
Visibility 5 miles    
Events Fog , Rain , Thunderstorm    
Averages and records for this station are not official NWS values.
T = Trace of Precipitation, MM = Missing Value Source: NWS Daily Summary

Daily Weather History Graph

Daily Weather History Graph

Search for Another Location

Airport:

Trip Planner

Search our weather history database for the weather conditions in past years. The results will help you decide how hot, cold, wet, or windy it might be!

Date:

Astronomy

Mar. 30, 2012 Rise Set
Actual Time 6:38 AM CDT 7:06 PM CDT
Civil Twilight 6:14 AM CDT 7:30 PM CDT
Nautical Twilight 5:46 AM CDT 7:58 PM CDT
Astronomical Twilight 5:17 AM CDT 8:27 PM CDT
Moon 12:02 PM CDT (3/30) 1:23 AM CDT (3/30)
Length of Visible Light 13h 15m
Length of Day
12h 27m
Waxing Crescent, 49% of the Moon is Illuminated
Mar 30
Waxing Crescent
Mar 30
First Quarter
Apr 6
Full
Apr 13
Last Quarter
Apr 21
New

Hourly Weather History & Observations

Time (CDT) Temp. Heat Index Dew Point Humidity Pressure Visibility Wind Dir Wind Speed Gust Speed Precip Events Conditions
12:40 AM 66.2 °F - 66.2 °F 100% 29.97 in 1.0 mi SE 3.5 mph - N/A   Mostly Cloudy
12:56 AM 66.9 °F - 66.0 °F 97% 29.92 in 1.0 mi SE 3.5 mph - N/A   Mostly Cloudy
1:03 AM 66.2 °F - 66.2 °F 100% 29.97 in 0.2 mi SE 3.5 mph - N/A Fog Fog
1:29 AM 66.2 °F - 66.2 °F 100% 29.96 in 0.8 mi Calm Calm - N/A   Overcast
1:41 AM 68.0 °F - 66.2 °F 94% 29.96 in 2.0 mi Calm Calm - N/A   Overcast
1:56 AM 68.0 °F - 66.9 °F 96% 29.91 in 1.8 mi East 3.5 mph - N/A   Overcast
2:12 AM 66.2 °F - 66.2 °F 100% 29.95 in 2.5 mi East 4.6 mph - N/A   Overcast
2:16 AM 66.2 °F - 66.2 °F 100% 29.95 in 1.8 mi East 4.6 mph - N/A   Overcast
2:27 AM 66.2 °F - 66.2 °F 100% 29.94 in 0.5 mi East 4.6 mph - N/A Fog Fog
2:40 AM 66.2 °F - 66.2 °F 100% 29.94 in 1.8 mi SE 3.5 mph - N/A   Overcast
2:42 AM 66.2 °F - 66.2 °F 100% 29.94 in 2.0 mi ESE 3.5 mph - N/A   Overcast
2:50 AM 66.2 °F - 66.2 °F 100% 29.94 in 1.8 mi ESE 3.5 mph - N/A   Overcast
2:56 AM 66.9 °F - 66.0 °F 97% 29.89 in 0.5 mi East 3.5 mph - N/A Fog Fog
3:20 AM 66.2 °F - 66.2 °F 100% 29.94 in 0.8 mi Calm Calm - N/A   Overcast
3:56 AM 68.0 °F - 68.0 °F 100% 29.90 in 0.8 mi SE 4.6 mph - N/A   Mist
4:56 AM 69.1 °F - 68.0 °F 96% 29.90 in 0.2 mi Calm Calm - N/A Fog Fog
5:56 AM 69.1 °F - 68.0 °F 96% 29.92 in 0.2 mi SE 4.6 mph - N/A Fog Fog
6:13 AM 68.0 °F - 68.0 °F 100% 29.96 in 1.0 mi SE 3.5 mph - N/A   Mostly Cloudy
6:34 AM 68.0 °F - 68.0 °F 100% 29.97 in 1.5 mi Calm Calm - N/A   Mostly Cloudy
6:56 AM 68.0 °F - 68.0 °F 100% 29.94 in 1.5 mi SE 3.5 mph - N/A   Mostly Cloudy
7:24 AM 69.8 °F - 69.8 °F 100% 29.99 in 2.5 mi Calm Calm - 0.00 in Rain Light Rain
7:46 AM 71.6 °F - 71.6 °F 100% 29.99 in 3.0 mi SSE 4.6 mph - 0.00 in   Mostly Cloudy
7:56 AM 72.0 °F - 71.1 °F 97% 29.95 in 4.0 mi SSE 4.6 mph - 0.00 in   Mostly Cloudy
8:32 AM 73.4 °F - 71.6 °F 94% 29.99 in 6.0 mi SSE 9.2 mph - N/A   Mostly Cloudy
8:56 AM 75.0 °F - 72.0 °F 90% 29.95 in 9.0 mi SSW 8.1 mph - N/A   Mostly Cloudy
9:56 AM 78.1 °F - 69.1 °F 74% 29.95 in 10.0 mi South 11.5 mph - N/A   Mostly Cloudy
10:56 AM 80.1 °F 82.1 °F 66.0 °F 62% 29.94 in 10.0 mi SSW 12.7 mph - N/A   Mostly Cloudy
11:56 AM 82.0 °F 84.5 °F 66.9 °F 60% 29.93 in 10.0 mi South 15.0 mph - N/A   Mostly Cloudy
12:56 PM 82.0 °F 85.5 °F 69.1 °F 65% 29.90 in 10.0 mi South 15.0 mph 21.9 mph N/A   Mostly Cloudy
1:56 PM 81.0 °F 84.1 °F 69.1 °F 67% 29.89 in 10.0 mi South 13.8 mph 21.9 mph N/A   Mostly Cloudy
2:56 PM 79.0 °F - 70.0 °F 74% 29.87 in 10.0 mi South 15.0 mph 20.7 mph N/A   Mostly Cloudy
3:56 PM 79.0 °F - 69.1 °F 72% 29.86 in 10.0 mi South 15.0 mph 25.3 mph N/A   Mostly Cloudy
4:56 PM 78.1 °F - 66.0 °F 66% 29.85 in 10.0 mi SSW 19.6 mph 25.3 mph N/A   Mostly Cloudy
5:56 PM 75.9 °F - 68.0 °F 76% 29.86 in 10.0 mi SSW 13.8 mph - N/A   Mostly Cloudy
6:56 PM 75.0 °F - 69.1 °F 82% 29.87 in 8.0 mi South 10.4 mph - 0.00 in Rain Light Rain
7:13 PM 73.4 °F - 69.8 °F 88% 29.91 in 6.0 mi SSW 11.5 mph - 0.01 in Rain Light Rain
7:21 PM 73.4 °F - 69.8 °F 88% 29.91 in 10.0 mi South 9.2 mph - 0.01 in Thunderstorm Thunderstorm
7:40 PM 73.4 °F - 69.8 °F 88% 29.92 in 10.0 mi South 8.1 mph - 0.01 in   Overcast
7:56 PM 73.0 °F - 69.1 °F 87% 29.88 in 10.0 mi South 8.1 mph - 0.01 in   Overcast
8:56 PM 73.0 °F - 69.1 °F 87% 29.88 in 10.0 mi South 10.4 mph - N/A   Overcast
9:56 PM 73.0 °F - 69.1 °F 87% 29.88 in 10.0 mi South 6.9 mph - N/A   Mostly Cloudy
10:56 PM 73.0 °F - 70.0 °F 90% 29.88 in 10.0 mi South 5.8 mph - N/A   Mostly Cloudy
11:24 PM 73.4 °F - 69.8 °F 88% 29.93 in 10.0 mi South 6.9 mph - N/A   Overcast
11:56 PM 73.0 °F - 70.0 °F 90% 29.88 in 10.0 mi South 4.6 mph - N/A   Mostly Cloudy